,,Stat1,,Stat2,,Stat3,,Stat4,,Wind1,,Wind1,
time,status,PR1M_SUM,status,RH1M_AVG,status,SR1M_AVG,status,TA1M_AVG,status,W1dAve1m,status,W1sAve1m,
1999-12-01, 00:01:00,VALID,0,VALID,100,VALID,-0.0169808,VALID,20.175,VALID,103,VALID,0.552632,
1999-12-01, 00:02:00,VALID,0,VALID,100,VALID,-0.0169808,VALID,20.1551,VALID,107,VALID,0.556332,
1999-12-01, 00:03:00,VALID,0.2,VALID,100,VALID,-0.0339617,VALID,20.1101,VALID,111,VALID,0.666921,
1999-12-01, 00:04:00,VALID,0,VALID,100,VALID,-0.0339617,VALID,20.0742,VALID,107,VALID,0.727796,
1999-12-01, 00:05:00,VALID,0,VALID,100,VALID,-0.0509425,VALID,20.074,VALID,92,VALID,0.47476,
1999-12-01, 00:06:00,VALID,0,VALID,100,VALID,-0.0509425,VALID,20.0392,VALID,65,VALID,1.10362,
1999-12-01, 00:07:00,VALID,0,VALID,99.9967,VALID,0,VALID,19.9909,VALID,80,VALID,1.18873,
1999-12-01, 00:08:00,VALID,0,VALID,100,VALID,-0.0339617,VALID,19.984,VALID,99,VALID,0.817145,
1999-12-01, 00:09:00,VALID,0,VALID,100,VALID,-0.0169808,VALID,20.0131,VALID,94,VALID,0.252344,
1999-12-01, 00:10:00,VALID,0,VALID,100,VALID,0,VALID,20.0486,VALID,91,VALID,0.0820313,
1999-12-01, 00:11:00,VALID,0.2,VALID,100,VALID,0,VALID,20.0325,VALID,117,VALID,0,
1999-12-01, 00:12:00,VALID,0,VALID,100,VALID,0,VALID,20.0255,VALID,220,VALID,0,
1999-12-01, 00:13:00,VALID,0,VALID,100,VALID,0.0169808,VALID,20.0193,VALID,217,VALID,0,
1999-12-01, 00:14:00,VALID,0,VALID,100,VALID,-0.0169808,VALID,20.0125,VALID,242,VALID,0,
1999-12-01, 00:15:00,VALID,0,VALID,100,VALID,0,VALID,20.0034,VALID,261,VALID,0,
1999-12-01, 00:16:00,VALID,0,VALID,100,VALID,-0.0339617,VALID,19.9867,VALID,257,VALID,0,
1999-12-01, 00:17:00,VALID,0,VALID,100,VALID,0,VALID,19.9869,VALID,257,VALID,0,
1999-12-01, 00:18:00,VALID,0,VALID,100,VALID,-0.0169808,VALID,19.977,VALID,257,VALID,0,
1999-12-01, 00:19:00,VALID,0,VALID,100,VALID,0,VALID,19.9805,VALID,246,VALID,0,
1999-12-01, 00:20:00,VALID,0.2,VALID,100,VALID,0,VALID,19.9643,VALID,197,VALID,0,
1999-12-01, 00:21:00,VALID,0,VALID,100,VALID,-0.0339617,VALID,19.9417,VALID,167,VALID,0,
1999-12-01, 00:22:01,VALID,0,VALID,100,VALID,0,VALID,19.928,VALID,167,VALID,0,
1999-12-01, 00:23:00,VALID,0,VALID,100,VALID,-0.0339617,VALID,19.9223,VALID,189,VALID,0.289268,
1999-12-01, 00:24:00,VALID,0,VALID,100,VALID,0.0169808,VALID,19.9061,VALID,190,VALID,0.0356841,
1999-12-01, 00:25:00,VALID,0,VALID,100,VALID,-0.0509425,VALID,19.9059,VALID,190,VALID,0,
1999-12-01, 00:26:00,VALID,0,VALID,100,VALID,-0.0169808,VALID,19.922,VALID,173,VALID,0,
1999-12-01, 00:27:00,VALID,0,VALID,100,VALID,-0.0169808,VALID,19.9514,VALID,101,VALID,0,
1999-12-01, 00:28:00,VALID,0.2,VALID,100,VALID,0,VALID,19.9481,VALID,101,VALID,0,
1999-12-01, 00:29:00,VALID,0,VALID,100,VALID,-0.0169808,VALID,19.9613,VALID,101,VALID,0,
1999-12-01, 00:30:00,VALID,0,VALID,100,VALID,-0.0169808,VALID,19.975,VALID,102,VALID,0,
1999-12-01, 00:31:00,VALID,0,VALID,100,VALID,-0.0169808,VALID,19.9675,VALID,124,VALID,0,
1999-12-01, 00:32:00,VALID,0,VALID,100,VALID,0,VALID,19.9812,VALID,161,VALID,0,
1999-12-01, 00:33:00,VALID,0,VALID,100,VALID,-0.0169808,VALID,19.9703,VALID,161,VALID,0,
1999-12-01, 00:34:00,VALID,0,VALID,100,VALID,-0.0339617,VALID,19.977,VALID,161,VALID,0,
1999-12-01, 00:35:00,VALID,0.2,VALID,100,VALID,-0.0339617,VALID,20.0103,VALID,143,VALID,0,
1999-12-01, 00:36:00,VALID,0,VALID,100,VALID,-0.0169808,VALID,19.9931,VALID,145,VALID,0,
1999-12-01, 00:37:00,VALID,0,VALID,100,VALID,-0.0509425,VALID,19.9775,VALID,145,VALID,0,
1999-12-01, 00:38:00,VALID,0,VALID,100,VALID,-0.0339617,VALID,19.9902,VALID,146,VALID,0,
1999-12-01, 00:39:00,VALID,0.2,VALID,99.999,VALID,-0.0169808,VALID,19.9546,VALID,146,VALID,0,
1999-12-01, 00:40:00,VALID,0,VALID,100,VALID,-0.0169808,VALID,19.9578,VALID,137,VALID,0,
1999-12-01, 00:41:00,VALID,0.2,VALID,100,VALID,-0.0169808,VALID,19.9708,VALID,110,VALID,0,
1999-12-01, 00:42:00,VALID,0,VALID,100,VALID,-0.0169808,VALID,19.9869,VALID,106,VALID,0,
1999-12-01, 00:43:00,VALID,0,VALID,100,VALID,-0.0339617,VALID,19.9678,VALID,115,VALID,0.598479,
1999-12-01, 00:44:00,VALID,0.2,VALID,100,VALID,-0.0169808,VALID,19.9387,VALID,112,VALID,0.856419,
1999-12-01, 00:45:00,VALID,0,VALID,100,VALID,-0.0169808,VALID,19.9447,VALID,99,VALID,0.949609,
1999-12-01, 00:46:00,VALID,0,VALID,100,VALID,-0.0339617,VALID,19.9449,VALID,84,VALID,0.848828,
1999-12-01, 00:47:00,VALID,0,VALID,100,VALID,-0.0339617,VALID,19.932,VALID,86,VALID,0.822574,
1999-12-01, 00:48:00,VALID,0,VALID,100,VALID,-0.0339617,VALID,19.9253,VALID,93,VALID,0.725296,
1999-12-01, 00:49:00,VALID,0,VALID,100,VALID,0,VALID,19.9322,VALID,76,VALID,0.789885,
1999-12-01, 00:50:00,VALID,0,VALID,100,VALID,-0.0169808,VALID,19.9091,VALID,94,VALID,0.886719,
1999-12-01, 00:51:00,VALID,0,VALID,100,VALID,-0.0169808,VALID,19.8959,VALID,76,VALID,0.709794,
1999-12-01, 00:52:00,VALID,0,VALID,100,VALID,-0.0169808,VALID,19.9093,VALID,82,VALID,0.672492,
1999-12-01, 00:53:00,VALID,0,VALID,99.9964,VALID,-0.0509425,VALID,19.9158,VALID,97,VALID,1.05589,
1999-12-01, 00:54:00,VALID,0,VALID,99.9303,VALID,-0.0169808,VALID,19.836,VALID,89,VALID,1.28022,
1999-12-01, 00:55:00,VALID,0,VALID,99.9392,VALID,-0.0509425,VALID,19.8126,VALID,83,VALID,0.605469,
1999-12-01, 00:56:00,VALID,0,VALID,99.9697,VALID,-0.0679233,VALID,19.8158,VALID,85,VALID,0.634924,
1999-12-01, 00:57:00,VALID,0,VALID,99.9748,VALID,-0.0169808,VALID,19.7994,VALID,79,VALID,0.775,
1999-12-01, 00:58:00,VALID,0,VALID,99.9176,VALID,-0.0339617,VALID,19.7509,VALID,60,VALID,1.12188,
1999-12-01, 00:59:00,VALID,0,VALID,99.9265,VALID,-0.0339617,VALID,19.7375,VALID,79,VALID,0.936061,
1999-12-01, 01:00:00,VALID,0,VALID,99.943,VALID,0,VALID,19.7385,VALID,94,VALID,0.940245,
1999-12-01, 01:01:00,VALID,0,VALID,99.957,VALID,-0.0169808,VALID,19.7221,VALID,98,VALID,0.628701,
1999-12-01, 01:02:00,VALID,0,VALID,99.9964,VALID,-0.0679233,VALID,19.7614,VALID,87,VALID,0.681743,
1999-12-01, 01:03:00,VALID,0,VALID,99.9784,VALID,-0.0509425,VALID,19.7382,VALID,74,VALID,0.705031,
1999-12-01, 01:04:00,VALID,0,VALID,99.9797,VALID,-0.0339617,VALID,19.7253,VALID,88,VALID,1.13795,
1999-12-01, 01:05:00,VALID,0,VALID,99.9621,VALID,-0.0169808,VALID,19.7121,VALID,93,VALID,1.13582,
1999-12-01, 01:06:00,VALID,0,VALID,99.9784,VALID,0.0509425,VALID,19.7009,VALID,95,VALID,0.893709,
1999-12-01, 01:07:00,VALID,0,VALID,100,VALID,0.0509425,VALID,19.7203,VALID,96,VALID,0.91838,
1999-12-01, 01:08:00,VALID,0,VALID,100,VALID,0.101885,VALID,19.7338,VALID,92,VALID,1.322,
1999-12-01, 01:09:00,VALID,0,VALID,100,VALID,0.0679233,VALID,19.7109,VALID,97,VALID,1.74512,
1999-12-01, 01:10:00,VALID,0,VALID,99.9774,VALID,0.0849042,VALID,19.6624,VALID,104,VALID,1.38516,
1999-12-01, 01:11:00,VALID,0,VALID,99.9954,VALID,0.0169808,VALID,19.6756,VALID,96,VALID,0.45477,
1999-12-01, 01:12:00,VALID,0,VALID,99.9647,VALID,-0.0169808,VALID,19.645,VALID,162,VALID,0,
1999-12-01, 01:13:00,VALID,0,VALID,99.9873,VALID,-0.0509425,VALID,19.6514,VALID,267,VALID,0.287007,
1999-12-01, 01:14:00,VALID,0,VALID,99.9967,VALID,-0.0339617,VALID,19.6544,VALID,179,VALID,0.277344,
1999-12-01, 01:15:00,VALID,0,VALID,100,VALID,0,VALID,19.6768,VALID,93,VALID,0.88529,
1999-12-01, 01:16:00,VALID,0,VALID,99.9977,VALID,-0.0679233,VALID,19.6606,VALID,95,VALID,1.44799,
1999-12-01, 01:17:00,VALID,0,VALID,99.9832,VALID,-0.101885,VALID,19.6286,VALID,89,VALID,1.88061,
1999-12-01, 01:18:00,VALID,0,VALID,99.9557,VALID,-0.0679233,VALID,19.5736,VALID,105,VALID,1.15358,
1999-12-01, 01:19:00,VALID,0,VALID,99.9189,VALID,-0.0169808,VALID,19.5572,VALID,310,VALID,0.840461,
1999-12-01, 01:20:00,VALID,0,VALID,99.8718,VALID,0.0169808,VALID,19.4958,VALID,313,VALID,0.74451,
1999-12-01, 01:21:00,VALID,0,VALID,99.8884,VALID,0.0169808,VALID,19.4689,VALID,294,VALID,0.230859,
1999-12-01, 01:22:00,VALID,0,VALID,99.9316,VALID,0.0169808,VALID,19.4756,VALID,121,VALID,0.388086,
1999-12-01, 01:23:00,VALID,0,VALID,99.9837,VALID,0,VALID,19.4881,VALID,105,VALID,0.880551,
1999-12-01, 01:24:00,VALID,0,VALID,99.9944,VALID,0,VALID,19.5042,VALID,103,VALID,0.952069,
1999-12-01, 01:25:00,VALID,0,VALID,100,VALID,-0.0169808,VALID,19.5338,VALID,101,VALID,0.744038,
1999-12-01, 01:26:00,VALID,0,VALID,99.9817,VALID,0.0169808,VALID,19.5343,VALID,62,VALID,0.356291,
1999-12-01, 01:27:00,VALID,0.2,VALID,99.9418,VALID,0,VALID,19.4659,VALID,106,VALID,0.709413,
1999-12-01, 01:28:00,VALID,0,VALID,99.9685,VALID,0.0169808,VALID,19.4754,VALID,106,VALID,0.525841,
1999-12-01, 01:29:00,VALID,0,VALID,99.9672,VALID,0.0339617,VALID,19.4689,VALID,104,VALID,0.552484,
1999-12-01, 01:30:00,VALID,0,VALID,99.9697,VALID,0.0339617,VALID,19.4657,VALID,92,VALID,0.375617,
1999-12-01, 01:31:00,VALID,0,VALID,99.9507,VALID,0.0169808,VALID,19.4597,VALID,54,VALID,0.334293,
1999-12-01, 01:32:00,VALID,0,VALID,99.9647,VALID,0.0339617,VALID,19.453,VALID,116,VALID,0.739231,
1999-12-01, 01:33:00,VALID,0,VALID,99.929,VALID,0,VALID,19.4276,VALID,99,VALID,0.315039,
1999-12-01, 01:34:00,VALID,0,VALID,99.9519,VALID,0,VALID,19.4142,VALID,171,VALID,0.0431641,
1999-12-01, 01:35:00,VALID,0,VALID,99.9786,VALID,0.0169808,VALID,19.45,VALID,94,VALID,1.14042,
1999-12-01, 01:36:00,VALID,0,VALID,99.9954,VALID,0.0509425,VALID,19.4597,VALID,88,VALID,1.74789,
1999-12-01, 01:37:00,VALID,0,VALID,100,VALID,0,VALID,19.4692,VALID,99,VALID,1.85341,
1999-12-01, 01:38:00,VALID,0,VALID,100,VALID,0.0169808,VALID,19.4888,VALID,96,VALID,1.62294,
1999-12-01, 01:39:00,VALID,0,VALID,99.9977,VALID,0.0339617,VALID,19.4816,VALID,97,VALID,1.50057,
1999-12-01, 01:40:00,VALID,0,VALID,100,VALID,0.0339617,VALID,19.495,VALID,103,VALID,1.01563,
1999-12-01, 01:41:00,VALID,0,VALID,100,VALID,0.0339617,VALID,19.5077,VALID,109,VALID,0.636018,
1999-12-01, 01:42:00,VALID,0,VALID,100,VALID,0.0169808,VALID,19.5249,VALID,111,VALID,0.249794,
1999-12-01, 01:43:00,VALID,0,VALID,99.9878,VALID,0,VALID,19.4918,VALID,98,VALID,0.421875,
1999-12-01, 01:44:00,VALID,0,VALID,99.9557,VALID,0,VALID,19.4373,VALID,107,VALID,0.471073,
1999-12-01, 01:45:00,VALID,0,VALID,99.9748,VALID,0.0169808,VALID,19.4498,VALID,99,VALID,0.992578,
1999-12-01, 01:46:00,VALID,0,VALID,99.9919,VALID,-0.0169808,VALID,19.4664,VALID,94,VALID,1.00625,
1999-12-01, 01:47:00,VALID,0,VALID,100,VALID,0,VALID,19.4828,VALID,92,VALID,0.196752,
1999-12-01, 01:48:00,VALID,0,VALID,99.9906,VALID,0,VALID,19.4828,VALID,5,VALID,0,
1999-12-01, 01:49:00,VALID,0,VALID,99.9201,VALID,0.0169808,VALID,19.45,VALID,289,VALID,0,
1999-12-01, 01:50:01,VALID,0.2,VALID,99.9201,VALID,0,VALID,19.4274,VALID,282,VALID,0,
1999-12-01, 01:51:00,VALID,0,VALID,99.9418,VALID,0.0169808,VALID,19.4112,VALID,277,VALID,0,
1999-12-01, 01:52:00,VALID,0,VALID,99.9659,VALID,0.0339617,VALID,19.4272,VALID,180,VALID,0,
1999-12-01, 01:53:00,VALID,0,VALID,99.9647,VALID,0.0169808,VALID,19.4105,VALID,104,VALID,0,
1999-12-01, 01:54:00,VALID,0,VALID,99.9596,VALID,0.0169808,VALID,19.4085,VALID,97,VALID,0,
1999-12-01, 01:55:00,VALID,0,VALID,99.9893,VALID,0.0339617,VALID,19.4239,VALID,97,VALID,0.350123,
1999-12-01, 01:56:00,VALID,0,VALID,100,VALID,0.0169808,VALID,19.4667,VALID,97,VALID,1.64379,
1999-12-01, 01:57:00,VALID,0,VALID,99.9947,VALID,0.0169808,VALID,19.4466,VALID,96,VALID,1.74023,
1999-12-01, 01:58:00,VALID,0,VALID,100,VALID,0.0169808,VALID,19.4729,VALID,98,VALID,1.52461,
1999-12-01, 01:59:00,VALID,0,VALID,100,VALID,0,VALID,19.4856,VALID,94,VALID,1.56785,
1999-12-01, 02:00:00,VALID,0,VALID,99.998,VALID,0.0169808,VALID,19.4692,VALID,99,VALID,1.28083,
1999-12-01, 02:01:01,VALID,0,VALID,100,VALID,0.0169808,VALID,19.4821,VALID,116,VALID,0.892887,
1999-12-01, 02:02:00,VALID,0,VALID,100,VALID,0,VALID,19.5149,VALID,111,VALID,0.678454,
1999-12-01, 02:03:00,VALID,0,VALID,100,VALID,0,VALID,19.5082,VALID,99,VALID,0.410823,
1999-12-01, 02:04:00,VALID,0,VALID,99.9944,VALID,-0.0169808,VALID,19.4958,VALID,103,VALID,0.268709,
1999-12-01, 02:05:00,VALID,0,VALID,100,VALID,0,VALID,19.5119,VALID,101,VALID,0.754607,
1999-12-01, 02:06:00,VALID,0,VALID,99.9957,VALID,0,VALID,19.5052,VALID,96,VALID,0.386102,
1999-12-01, 02:07:00,VALID,0,VALID,99.971,VALID,0,VALID,19.4759,VALID,95,VALID,0.204153,
1999-12-01, 02:08:00,VALID,0,VALID,99.9898,VALID,0.0339617,VALID,19.4791,VALID,97,VALID,0,
1999-12-01, 02:09:00,VALID,0,VALID,99.957,VALID,0.0679233,VALID,19.4565,VALID,46,VALID,0,
1999-12-01, 02:10:00,VALID,0,VALID,99.9405,VALID,0,VALID,19.4406,VALID,48,VALID,0,
1999-12-01, 02:11:00,VALID,0,VALID,99.9456,VALID,0.0169808,VALID,19.4209,VALID,88,VALID,0,
1999-12-01, 02:12:01,VALID,0.2,VALID,99.9748,VALID,0.0169808,VALID,19.4341,VALID,99,VALID,0,
1999-12-01, 02:13:00,VALID,0,VALID,99.9748,VALID,0.0169808,VALID,19.4339,VALID,98,VALID,0,
1999-12-01, 02:14:00,VALID,0,VALID,99.9557,VALID,0.0169808,VALID,19.4341,VALID,96,VALID,0,
1999-12-01, 02:15:00,VALID,0,VALID,99.9659,VALID,0.0339617,VALID,19.4242,VALID,96,VALID,0,
1999-12-01, 02:16:00,VALID,0,VALID,99.9735,VALID,0.0339617,VALID,19.4244,VALID,85,VALID,0,
1999-12-01, 02:17:00,VALID,0,VALID,99.9519,VALID,0.0169808,VALID,19.3986,VALID,11,VALID,0,
1999-12-01, 02:18:00,VALID,0,VALID,99.9214,VALID,0,VALID,19.3789,VALID,16,VALID,0,
1999-12-01, 02:19:00,VALID,0,VALID,99.9657,VALID,0,VALID,19.3956,VALID,100,VALID,0,
1999-12-01, 02:20:00,VALID,0,VALID,99.999,VALID,0.0169808,VALID,19.4242,VALID,104,VALID,0,
1999-12-01, 02:21:00,VALID,0,VALID,100,VALID,-0.0169808,VALID,19.4475,VALID,102,VALID,0,
1999-12-01, 02:22:01,VALID,0,VALID,100,VALID,-0.0169808,VALID,19.4634,VALID,103,VALID,0,
1999-12-01, 02:23:01,VALID,0,VALID,100,VALID,0,VALID,19.4764,VALID,100,VALID,0,
1999-12-01, 02:24:00,VALID,0,VALID,100,VALID,0,VALID,19.5,VALID,107,VALID,0,
1999-12-01, 02:25:00,VALID,0,VALID,100,VALID,0,VALID,19.5087,VALID,92,VALID,0,
1999-12-01, 02:26:00,VALID,0,VALID,100,VALID,0,VALID,19.5085,VALID,106,VALID,0,
1999-12-01, 02:27:00,VALID,0,VALID,100,VALID,0,VALID,19.4921,VALID,139,VALID,0,
1999-12-01, 02:28:00,VALID,0,VALID,99.9977,VALID,0,VALID,19.4799,VALID,113,VALID,0,
1999-12-01, 02:29:00,VALID,0.2,VALID,100,VALID,0.0169808,VALID,19.4993,VALID,106,VALID,0,
1999-12-01, 02:30:00,VALID,0,VALID,99.9908,VALID,0,VALID,19.4861,VALID,87,VALID,0,
1999-12-01, 02:31:00,VALID,0,VALID,99.9908,VALID,0,VALID,19.4766,VALID,100,VALID,0,
1999-12-01, 02:32:00,VALID,0,VALID,100,VALID,0.0169808,VALID,19.4928,VALID,112,VALID,0,
1999-12-01, 02:33:00,VALID,0,VALID,99.9941,VALID,0,VALID,19.4828,VALID,110,VALID,0,
1999-12-01, 02:34:01,VALID,0,VALID,99.9748,VALID,-0.0169808,VALID,19.4535,VALID,106,VALID,0,
1999-12-01, 02:35:00,VALID,0,VALID,99.9545,VALID,0.0169808,VALID,19.4209,VALID,97,VALID,0,
1999-12-01, 02:36:00,VALID,0,VALID,99.9456,VALID,0,VALID,19.3981,VALID,94,VALID,0,
1999-12-01, 02:37:00,VALID,0,VALID,99.9634,VALID,0.0339617,VALID,19.4276,VALID,9,VALID,0,
1999-12-01, 02:38:00,VALID,0,VALID,99.9163,VALID,0,VALID,19.4018,VALID,301,VALID,0,
1999-12-01, 02:39:00,VALID,0,VALID,99.8973,VALID,0,VALID,19.3799,VALID,285,VALID,0,
1999-12-01, 02:40:00,VALID,0,VALID,99.9557,VALID,0,VALID,19.3724,VALID,199,VALID,0,
1999-12-01, 02:41:00,VALID,0,VALID,99.9761,VALID,0,VALID,19.3886,VALID,110,VALID,0,
1999-12-01, 02:42:00,VALID,0,VALID,99.9748,VALID,0.0339617,VALID,19.3988,VALID,107,VALID,0,
1999-12-01, 02:43:00,VALID,0.2,VALID,99.9819,VALID,0.0339617,VALID,19.3986,VALID,92,VALID,0,
1999-12-01, 02:44:00,VALID,0,VALID,99.9621,VALID,0.0169808,VALID,19.3821,VALID,97,VALID,0,
1999-12-01, 02:45:01,VALID,0,VALID,99.9812,VALID,0.0169808,VALID,19.405,VALID,117,VALID,0,
1999-12-01, 02:46:00,VALID,0,VALID,99.9748,VALID,0.0339617,VALID,19.4015,VALID,117,VALID,0,
1999-12-01, 02:47:00,VALID,0,VALID,99.9735,VALID,0.0339617,VALID,19.4085,VALID,117,VALID,0,
1999-12-01, 02:48:00,VALID,0.2,VALID,99.9647,VALID,0.0169808,VALID,19.3983,VALID,117,VALID,0,
1999-12-01, 02:49:00,VALID,0,VALID,99.9723,VALID,0.0169808,VALID,19.4048,VALID,117,VALID,0,
1999-12-01, 02:50:00,VALID,0,VALID,99.9863,VALID,0.0169808,VALID,19.4177,VALID,117,VALID,0,
1999-12-01, 02:51:00,VALID,0,VALID,99.9957,VALID,0,VALID,19.4336,VALID,117,VALID,0,
1999-12-01, 02:52:00,VALID,0,VALID,99.9944,VALID,0,VALID,19.4406,VALID,119,VALID,0,
1999-12-01, 02:53:00,VALID,0.2,VALID,99.9934,VALID,0,VALID,19.45,VALID,122,VALID,0,
1999-12-01, 02:54:00,VALID,0,VALID,99.9947,VALID,0.0169808,VALID,19.4667,VALID,122,VALID,0,
1999-12-01, 02:55:00,VALID,0,VALID,99.9619,VALID,0.0339617,VALID,19.4503,VALID,122,VALID,0,
1999-12-01, 02:56:01,VALID,0,VALID,99.924,VALID,0.0169808,VALID,19.408,VALID,122,VALID,0,
1999-12-01, 02:57:00,VALID,0,VALID,99.924,VALID,0,VALID,19.4087,VALID,122,VALID,0,
1999-12-01, 02:58:00,VALID,0.2,VALID,99.9138,VALID,0.0169808,VALID,19.3993,VALID,122,VALID,0,
1999-12-01, 02:59:00,VALID,0,VALID,99.9329,VALID,0,VALID,19.4015,VALID,122,VALID,0,
1999-12-01, 03:00:00,VALID,0,VALID,99.9685,VALID,0,VALID,19.4306,VALID,122,VALID,0,
1999-12-01, 03:01:00,VALID,0,VALID,99.9893,VALID,0,VALID,19.4508,VALID,122,VALID,0,
1999-12-01, 03:02:00,VALID,0,VALID,99.9847,VALID,0.0169808,VALID,19.4637,VALID,122,VALID,0,
1999-12-01, 03:03:00,VALID,0,VALID,99.9557,VALID,0,VALID,19.4475,VALID,122,VALID,0,
1999-12-01, 03:04:00,VALID,0.2,VALID,99.9545,VALID,0,VALID,19.4242,VALID,122,VALID,0,
1999-12-01, 03:05:00,VALID,0,VALID,99.9519,VALID,0,VALID,19.4408,VALID,122,VALID,0,
1999-12-01, 03:06:00,VALID,0,VALID,99.9329,VALID,0.0169808,VALID,19.4281,VALID,122,VALID,0,
1999-12-01, 03:07:00,VALID,0,VALID,99.9112,VALID,0.0169808,VALID,19.4082,VALID,122,VALID,0,
1999-12-01, 03:08:00,VALID,0,VALID,99.9023,VALID,0.0339617,VALID,19.3881,VALID,122,VALID,0,
1999-12-01, 03:09:00,VALID,0,VALID,99.9023,VALID,0,VALID,19.3757,VALID,122,VALID,0,
1999-12-01, 03:10:00,VALID,0,VALID,99.9138,VALID,0,VALID,19.3958,VALID,122,VALID,0,
1999-12-01, 03:11:00,VALID,0,VALID,99.8909,VALID,0.0169808,VALID,19.3794,VALID,122,VALID,0,
1999-12-01, 03:12:00,VALID,0,VALID,99.8756,VALID,0,VALID,19.3697,VALID,122,VALID,0,
1999-12-01, 03:13:00,VALID,0,VALID,99.8871,VALID,0.0169808,VALID,19.3635,VALID,122,VALID,0,
1999-12-01, 03:14:00,VALID,0,VALID,99.8922,VALID,0,VALID,19.36,VALID,122,VALID,0,
1999-12-01, 03:15:00,VALID,0,VALID,99.8756,VALID,0.0169808,VALID,19.3535,VALID,122,VALID,0,
1999-12-01, 03:16:00,VALID,0.2,VALID,99.8858,VALID,0.0339617,VALID,19.3563,VALID,122,VALID,0,
1999-12-01, 03:17:00,VALID,0,VALID,99.8896,VALID,0.0169808,VALID,19.3699,VALID,122,VALID,0,
1999-12-01, 03:18:00,VALID,0,VALID,99.8947,VALID,0,VALID,19.3667,VALID,122,VALID,0,
1999-12-01, 03:19:00,VALID,0,VALID,99.8909,VALID,0.0169808,VALID,19.3528,VALID,122,VALID,0,
1999-12-01, 03:20:00,VALID,0,VALID,99.9074,VALID,0.0169808,VALID,19.3729,VALID,122,VALID,0,
1999-12-01, 03:21:00,VALID,0,VALID,99.8998,VALID,0.0849042,VALID,19.3789,VALID,122,VALID,0,
1999-12-01, 03:22:00,VALID,0,VALID,99.8833,VALID,0.0509425,VALID,19.3792,VALID,122,VALID,0,
1999-12-01, 03:23:00,VALID,0,VALID,99.8845,VALID,0.0679233,VALID,19.3854,VALID,122,VALID,0,
1999-12-01, 03:24:00,VALID,0,VALID,99.8667,VALID,0.0509425,VALID,19.3787,VALID,122,VALID,0,
1999-12-01, 03:25:00,VALID,0,VALID,99.8896,VALID,0.101885,VALID,19.3916,VALID,122,VALID,0,
1999-12-01, 03:26:00,VALID,0,VALID,99.9074,VALID,0.101885,VALID,19.4115,VALID,122,VALID,0,
1999-12-01, 03:27:00,VALID,0,VALID,99.9036,VALID,0.101885,VALID,19.4249,VALID,122,VALID,0,
1999-12-01, 03:28:00,VALID,0,VALID,99.882,VALID,0.0679233,VALID,19.4048,VALID,122,VALID,0,
1999-12-01, 03:29:00,VALID,0.2,VALID,99.8604,VALID,0.0509425,VALID,19.3953,VALID,122,VALID,0,
1999-12-01, 03:30:00,VALID,0,VALID,99.8527,VALID,0.0169808,VALID,19.3821,VALID,122,VALID,0,
1999-12-01, 03:31:00,VALID,0,VALID,99.8502,VALID,0.0339617,VALID,19.3856,VALID,122,VALID,0,
1999-12-01, 03:32:00,VALID,0,VALID,99.8502,VALID,0.0169808,VALID,19.3727,VALID,122,VALID,0,
1999-12-01, 03:33:00,VALID,0,VALID,99.8171,VALID,0.0339617,VALID,19.3665,VALID,122,VALID,0,
1999-12-01, 03:34:00,VALID,0,VALID,99.7981,VALID,0.0339617,VALID,19.3438,VALID,122,VALID,0,
1999-12-01, 03:35:00,VALID,0,VALID,99.793,VALID,0,VALID,19.3274,VALID,122,VALID,0,
1999-12-01, 03:36:00,VALID,0,VALID,99.826,VALID,0,VALID,19.3307,VALID,122,VALID,0,
1999-12-01, 03:37:00,VALID,0,VALID,99.8591,VALID,0.0169808,VALID,19.3339,VALID,122,VALID,0,
1999-12-01, 03:38:00,VALID,0,VALID,99.8858,VALID,0.0169808,VALID,19.3533,VALID,122,VALID,0,
1999-12-01, 03:39:00,VALID,0,VALID,99.8998,VALID,0.0509425,VALID,19.3729,VALID,122,VALID,0,
1999-12-01, 03:40:00,VALID,0,VALID,99.8782,VALID,0,VALID,19.3729,VALID,122,VALID,0,
1999-12-01, 03:41:00,VALID,0,VALID,99.8833,VALID,0.0339617,VALID,19.3531,VALID,122,VALID,0,
1999-12-01, 03:42:00,VALID,0,VALID,99.8947,VALID,0.0169808,VALID,19.3695,VALID,122,VALID,0,
1999-12-01, 03:43:00,VALID,0,VALID,99.8947,VALID,0.0509425,VALID,19.3762,VALID,122,VALID,0,
1999-12-01, 03:44:00,VALID,0,VALID,99.9087,VALID,0,VALID,19.3826,VALID,122,VALID,0,
1999-12-01, 03:45:00,VALID,0.2,VALID,99.9252,VALID,0,VALID,19.3824,VALID,122,VALID,0,
1999-12-01, 03:46:00,VALID,0,VALID,99.896,VALID,0,VALID,19.3859,VALID,156,VALID,0,
1999-12-01, 03:47:00,VALID,0,VALID,99.8782,VALID,0.0169808,VALID,19.3729,VALID,290,VALID,0,
1999-12-01, 03:48:00,VALID,0,VALID,99.8833,VALID,0,VALID,19.3665,VALID,306,VALID,0,
1999-12-01, 03:49:00,VALID,0,VALID,99.9023,VALID,0.0339617,VALID,19.3732,VALID,308,VALID,0,
1999-12-01, 03:50:00,VALID,0,VALID,99.8947,VALID,0.0169808,VALID,19.363,VALID,308,VALID,0,
1999-12-01, 03:51:00,VALID,0,VALID,99.8884,VALID,0.0339617,VALID,19.3431,VALID,308,VALID,0,
1999-12-01, 03:52:00,VALID,0,VALID,99.8795,VALID,0.0679233,VALID,19.3466,VALID,308,VALID,0,
1999-12-01, 03:53:00,VALID,0,VALID,99.8985,VALID,0.0339617,VALID,19.3371,VALID,332,VALID,0,
1999-12-01, 03:54:00,VALID,0,VALID,99.9519,VALID,0.0509425,VALID,19.3498,VALID,340,VALID,0,
1999-12-01, 03:55:00,VALID,0.2,VALID,99.9944,VALID,0.0169808,VALID,19.3889,VALID,303,VALID,0,
1999-12-01, 03:56:00,VALID,0,VALID,99.999,VALID,0.0339617,VALID,19.4015,VALID,306,VALID,0,
1999-12-01, 03:57:00,VALID,0,VALID,100,VALID,0.0339617,VALID,19.4438,VALID,306,VALID,0,
1999-12-01, 03:58:00,VALID,0,VALID,100,VALID,0.0169808,VALID,19.4535,VALID,78,VALID,0,
1999-12-01, 03:59:00,VALID,0,VALID,100,VALID,0.0339617,VALID,19.4597,VALID,98,VALID,0,
1999-12-01, 04:00:00,VALID,0,VALID,99.999,VALID,0.0169808,VALID,19.447,VALID,106,VALID,0,
1999-12-01, 04:01:00,VALID,0,VALID,100,VALID,0,VALID,19.4406,VALID,103,VALID,0,
1999-12-01, 04:02:00,VALID,0,VALID,100,VALID,0,VALID,19.46,VALID,105,VALID,0,
1999-12-01, 04:03:00,VALID,0,VALID,100,VALID,0,VALID,19.4759,VALID,87,VALID,0,
1999-12-01, 04:04:00,VALID,0,VALID,100,VALID,0.0169808,VALID,19.4826,VALID,123,VALID,0,
1999-12-01, 04:05:00,VALID,0,VALID,100,VALID,0.0169808,VALID,19.4985,VALID,168,VALID,0,
1999-12-01, 04:06:00,VALID,0,VALID,100,VALID,-0.0679233,VALID,19.4838,VALID,264,VALID,0,
1999-12-01, 04:07:00,VALID,0,VALID,99.999,VALID,-0.0679233,VALID,19.4843,VALID,220,VALID,0,
1999-12-01, 04:08:00,VALID,0,VALID,99.9957,VALID,-0.0849042,VALID,19.4448,VALID,230,VALID,0,
1999-12-01, 04:09:00,VALID,0,VALID,99.9919,VALID,-0.0339617,VALID,19.452,VALID,125,VALID,0,
1999-12-01, 04:10:00,VALID,0,VALID,99.9967,VALID,-0.0679233,VALID,19.4291,VALID,118,VALID,0,
1999-12-01, 04:11:00,VALID,0,VALID,99.999,VALID,-0.0849042,VALID,19.4291,VALID,118,VALID,0,
1999-12-01, 04:12:00,VALID,0,VALID,100,VALID,-0.0679233,VALID,19.4224,VALID,118,VALID,0,
1999-12-01, 04:13:00,VALID,0,VALID,100,VALID,-0.0849042,VALID,19.4353,VALID,119,VALID,0,
1999-12-01, 04:14:00,VALID,0,VALID,100,VALID,-0.0849042,VALID,19.4455,VALID,116,VALID,0,
1999-12-01, 04:15:00,VALID,0,VALID,100,VALID,-0.0679233,VALID,19.4224,VALID,101,VALID,0,
1999-12-01, 04:16:00,VALID,0,VALID,99.9807,VALID,-0.0169808,VALID,19.4095,VALID,100,VALID,0,
1999-12-01, 04:17:00,VALID,0,VALID,99.9954,VALID,-0.0849042,VALID,19.41,VALID,101,VALID,0,
1999-12-01, 04:18:00,VALID,0,VALID,99.9886,VALID,-0.0509425,VALID,19.3903,VALID,101,VALID,0,
1999-12-01, 04:19:00,VALID,0,VALID,99.9837,VALID,-0.0509425,VALID,19.3739,VALID,101,VALID,0,
1999-12-01, 04:20:00,VALID,0,VALID,99.9969,VALID,-0.0339617,VALID,19.3804,VALID,113,VALID,0,